• en France
  • Liste des pays
  • À 7 jours
  • Température de l'eau
  • Carte satellitaire
  • Carte météo
  • Widgets météo
  • user-avatar
    Se connecter

    Météo par heure à Reykjavík

    Ce jour, 22 Octobre, Lundi

    Heure Température Précipitation Vent Pression Humidité
    00:00 +1°C° 0.2 mm 8 m/s 753 mmHg 76%
    01:00 +2°C° 0.2 mm 7 m/s 752 mmHg 79%
    02:00 +2°C° 0.2 mm 6 m/s 751 mmHg 82%
    03:00 +2°C° 0.9 mm 6 m/s 751 mmHg 87%
    04:00 +2°C° 0.9 mm 5 m/s 750 mmHg 91%
    05:00 +2°C° 0.9 mm 5 m/s 749 mmHg 95%
    06:00 +3°C° 0.6 mm 6 m/s 749 mmHg 96%
    07:00 +3°C° 0.6 mm 6 m/s 748 mmHg 96%
    08:00 +4°C° 0.6 mm 7 m/s 748 mmHg 96%
    09:00 +4°C° 0.4 mm 7 m/s 748 mmHg 96%
    10:00 +4°C° 0.4 mm 7 m/s 749 mmHg 96%
    11:00 +5°C° 0.4 mm 7 m/s 749 mmHg 95%
    12:00 +4°C° 0.1 mm 7 m/s 750 mmHg 94%
    13:00 +4°C° 0.1 mm 7 m/s 751 mmHg 92%
    14:00 +4°C° 0.1 mm 7 m/s 751 mmHg 90%
    15:00 +3°C° 0 mm 6 m/s 752 mmHg 88%
    16:00 +3°C° 0 mm 6 m/s 753 mmHg 87%
    17:00 +3°C° 0 mm 6 m/s 753 mmHg 86%
    18:00 +2°C° 0 mm 6 m/s 754 mmHg 84%
    19:00 +2°C° 0 mm 5 m/s 754 mmHg 83%
    20:00 +2°C° 0 mm 5 m/s 755 mmHg 81%
    21:00 +2°C° 0 mm 5 m/s 755 mmHg 81%
    22:00 +1°C° 0 mm 4 m/s 755 mmHg 81%
    23:00 +1°C° 0 mm 4 m/s 755 mmHg 80%

    Demain, 23 Octobre, Mardi

    Heure Température Précipitation Vent Pression Humidité
    00:00 +2°C° 0 mm 3 m/s 756 mmHg 80%
    01:00 +2°C° 0 mm 3 m/s 756 mmHg 80%
    02:00 +3°C° 0 mm 2 m/s 757 mmHg 80%
    03:00 +3°C° 0 mm 2 m/s 757 mmHg 80%
    04:00 +3°C° 0 mm 2 m/s 757 mmHg 80%
    05:00 +4°C° 0 mm 1 m/s 757 mmHg 80%
    06:00 +3°C° 0.1 mm 2 m/s 757 mmHg 80%
    07:00 +3°C° 0.1 mm 2 m/s 757 mmHg 80%
    08:00 +2°C° 0.1 mm 3 m/s 757 mmHg 81%
    09:00 +2°C° 0.1 mm 3 m/s 757 mmHg 80%
    10:00 +2°C° 0.1 mm 3 m/s 757 mmHg 79%
    11:00 +3°C° 0.1 mm 3 m/s 757 mmHg 78%
    12:00 +1°C° 1.1 mm 4 m/s 756 mmHg 83%
    13:00 +1°C° 1.1 mm 5 m/s 756 mmHg 87%
    14:00 0°C° 1.1 mm 7 m/s 755 mmHg 91%
    15:00 +2°C° 2.1 mm 6 m/s 754 mmHg 93%
    16:00 +2°C° 2.1 mm 6 m/s 754 mmHg 94%
    17:00 +3°C° 2.1 mm 6 m/s 753 mmHg 96%
    18:00 +4°C° 1 mm 6 m/s 753 mmHg 96%
    19:00 +4°C° 1 mm 6 m/s 752 mmHg 97%
    20:00 +5°C° 1 mm 6 m/s 752 mmHg 97%
    21:00 +5°C° 1.1 mm 7 m/s 752 mmHg 97%
    22:00 +6°C° 1.1 mm 8 m/s 751 mmHg 98%
    23:00 +6°C° 1.1 mm 8 m/s 751 mmHg 98%

    Après-demain, 24 Octobre, Mercredi

    Heure Température Précipitation Vent Pression Humidité
    00:00 +6°C° 0.4 mm 9 m/s 750 mmHg 97%
    01:00 +6°C° 0.4 mm 9 m/s 750 mmHg 97%
    02:00 +6°C° 0.4 mm 9 m/s 750 mmHg 96%
    03:00 +6°C° 0.4 mm 10 m/s 750 mmHg 96%
    04:00 +5°C° 0.4 mm 10 m/s 750 mmHg 95%
    05:00 +4°C° 0.4 mm 11 m/s 750 mmHg 94%
    06:00 +5°C° 0.3 mm 9 m/s 751 mmHg 95%
    07:00 +5°C° 0.3 mm 8 m/s 751 mmHg 95%
    08:00 +5°C° 0.3 mm 7 m/s 752 mmHg 95%
    09:00 +4°C° 0 mm 7 m/s 753 mmHg 94%
    10:00 +4°C° 0 mm 7 m/s 754 mmHg 92%
    11:00 +3°C° 0 mm 6 m/s 755 mmHg 90%
    12:00 +3°C° 0 mm 6 m/s 755 mmHg 88%
    13:00 +3°C° 0 mm 6 m/s 756 mmHg 86%
    14:00 +3°C° 0 mm 6 m/s 757 mmHg 84%
    15:00 +2°C° 0 mm 6 m/s 757 mmHg 84%
    16:00 +1°C° 0 mm 6 m/s 758 mmHg 84%
    17:00 -1°C° 0 mm 6 m/s 758 mmHg 84%
    18:00 -1°C° 0 mm 6 m/s 759 mmHg 84%
    19:00 -2°C° 0 mm 6 m/s 759 mmHg 84%
    20:00 -2°C° 0 mm 6 m/s 760 mmHg 84%
    21:00 -2°C° 0 mm 6 m/s 760 mmHg 84%
    22:00 -3°C° 0 mm 6 m/s 760 mmHg 83%
    23:00 -3°C° 0 mm 6 m/s 760 mmHg 82%

    25 Octobre, Jeudi

    Heure Température Précipitation Vent Pression Humidité
    00:00 -3°C° 0 mm 6 m/s 760 mmHg 81%
    01:00 -3°C° 0 mm 6 m/s 760 mmHg 80%
    02:00 -3°C° 0 mm 7 m/s 760 mmHg 79%
    03:00 -4°C° 0 mm 7 m/s 760 mmHg 78%
    04:00 -4°C° 0 mm 7 m/s 760 mmHg 78%
    05:00 -4°C° 0 mm 7 m/s 760 mmHg 77%
    06:00 -5°C° 0 mm 8 m/s 761 mmHg 77%
    07:00 -5°C° 0 mm 8 m/s 761 mmHg 77%
    08:00 -5°C° 0 mm 8 m/s 762 mmHg 76%
    09:00 -5°C° 0 mm 8 m/s 762 mmHg 75%
    10:00 -4°C° 0 mm 8 m/s 763 mmHg 73%
    11:00 -4°C° 0 mm 8 m/s 763 mmHg 71%
    12:00 -4°C° 0 mm 8 m/s 764 mmHg 70%
    13:00 -4°C° 0 mm 8 m/s 765 mmHg 68%
    14:00 -4°C° 0 mm 8 m/s 765 mmHg 66%
    15:00 -4°C° 0 mm 7 m/s 766 mmHg 67%
    16:00 -4°C° 0 mm 7 m/s 767 mmHg 67%
    17:00 -5°C° 0 mm 6 m/s 768 mmHg 68%
    18:00 -5°C° 0 mm 6 m/s 768 mmHg 68%
    19:00 -5°C° 0 mm 5 m/s 769 mmHg 68%
    20:00 -5°C° 0 mm 5 m/s 769 mmHg 68%
    21:00 -6°C° 0 mm 5 m/s 770 mmHg 68%
    22:00 -6°C° 0 mm 5 m/s 770 mmHg 68%
    23:00 -6°C° 0 mm 6 m/s 771 mmHg 68%

    26 Octobre, Vendredi

    Heure Température Précipitation Vent Pression Humidité
    00:00 -6°C° 0 mm 6 m/s 771 mmHg 68%
    01:00 -6°C° 0 mm 6 m/s 771 mmHg 69%
    02:00 -8°C° 0 mm 7 m/s 772 mmHg 69%
    03:00 -8°C° 0 mm 7 m/s 772 mmHg 69%
    04:00 -8°C° 0 mm 7 m/s 772 mmHg 69%
    05:00 -8°C° 0 mm 7 m/s 773 mmHg 69%
    06:00 -8°C° 0 mm 7 m/s 773 mmHg 70%
    07:00 -7°C° 0 mm 8 m/s 774 mmHg 71%
    08:00 -7°C° 0 mm 8 m/s 775 mmHg 72%
    09:00 -7°C° 0 mm 8 m/s 775 mmHg 69%
    10:00 -7°C° 0 mm 8 m/s 776 mmHg 67%
    11:00 -6°C° 0 mm 8 m/s 776 mmHg 64%
    12:00 -6°C° 0 mm 8 m/s 777 mmHg 62%
    13:00 -6°C° 0 mm 8 m/s 777 mmHg 60%
    14:00 -6°C° 0 mm 8 m/s 778 mmHg 57%
    15:00 -7°C° 0 mm 7 m/s 778 mmHg 60%
    16:00 -6°C° 0 mm 6 m/s 779 mmHg 62%
    17:00 -6°C° 0 mm 6 m/s 780 mmHg 65%
    18:00 -7°C° 0 mm 5 m/s 780 mmHg 65%
    19:00 -7°C° 0 mm 5 m/s 781 mmHg 66%
    20:00 -7°C° 0 mm 5 m/s 781 mmHg 66%
    21:00 -7°C° 0 mm 5 m/s 782 mmHg 66%
    22:00 -7°C° 0 mm 5 m/s 782 mmHg 65%
    23:00 -7°C° 0 mm 5 m/s 783 mmHg 65%

    27 Octobre, Samedi

    Heure Température Précipitation Vent Pression Humidité
    00:00 -8°C° 0 mm 6 m/s 783 mmHg 67%
    01:00 -8°C° 0 mm 6 m/s 783 mmHg 69%
    02:00 -8°C° 0 mm 6 m/s 783 mmHg 71%
    03:00 -8°C° 0 mm 6 m/s 782 mmHg 73%
    04:00 -8°C° 0 mm 6 m/s 782 mmHg 75%
    05:00 -8°C° 0 mm 6 m/s 782 mmHg 76%
    06:00 -7°C° 0 mm 5 m/s 782 mmHg 76%
    07:00 -7°C° 0 mm 5 m/s 782 mmHg 75%
    08:00 -7°C° 0 mm 5 m/s 781 mmHg 75%
    09:00 -5°C° 0 mm 4 m/s 781 mmHg 71%
    10:00 -4°C° 0 mm 3 m/s 780 mmHg 68%
    11:00 -2°C° 0 mm 3 m/s 780 mmHg 64%
    12:00 -2°C° 0 mm 2 m/s 779 mmHg 63%
    13:00 -1°C° 0 mm 2 m/s 779 mmHg 61%
    14:00 +1°C° 0 mm 1 m/s 778 mmHg 59%
    15:00 -1°C° 0 mm 2 m/s 777 mmHg 60%
    16:00 -1°C° 0 mm 3 m/s 777 mmHg 62%
    17:00 -1°C° 0 mm 3 m/s 776 mmHg 63%
    18:00 -1°C° 0 mm 4 m/s 776 mmHg 66%
    19:00 -1°C° 0 mm 5 m/s 775 mmHg 68%
    20:00 -2°C° 0 mm 6 m/s 774 mmHg 71%
    21:00 -2°C° 0 mm 6 m/s 773 mmHg 75%
    22:00 -1°C° 0 mm 7 m/s 772 mmHg 79%
    23:00 -1°C° 0 mm 8 m/s 771 mmHg 83%

    28 Octobre, Dimanche

    Heure Température Précipitation Vent Pression Humidité
    00:00 -1°C° 0.3 mm 9 m/s 770 mmHg 85%
    01:00 0°C° 0.3 mm 10 m/s 769 mmHg 86%
    02:00 -1°C° 0.3 mm 11 m/s 767 mmHg 88%
    03:00 -1°C° 0.4 mm 11 m/s 766 mmHg 88%
    04:00 0°C° 0.4 mm 12 m/s 764 mmHg 89%
    05:00 0°C° 0.4 mm 12 m/s 763 mmHg 89%
    06:00 0°C° 1.4 mm 13 m/s 762 mmHg 90%
    07:00 0°C° 1.4 mm 13 m/s 760 mmHg 91%
    08:00 0°C° 1.4 mm 13 m/s 759 mmHg 91%
    09:00 +1°C° 1.9 mm 13 m/s 758 mmHg 92%
    10:00 +1°C° 1.9 mm 13 m/s 756 mmHg 93%
    11:00 +1°C° 1.9 mm 13 m/s 755 mmHg 94%
    12:00 +2°C° 1.5 mm 12 m/s 754 mmHg 95%
    13:00 +2°C° 1.5 mm 10 m/s 753 mmHg 95%
    14:00 +4°C° 1.5 mm 8 m/s 751 mmHg 95%
    15:00 +3°C° 0.3 mm 7 m/s 751 mmHg 96%
    16:00 +3°C° 0.3 mm 5 m/s 750 mmHg 97%
    17:00 +4°C° 0.3 mm 3 m/s 749 mmHg 98%
    18:00 +4°C° 0.4 mm 3 m/s 748 mmHg 98%
    19:00 +4°C° 0.4 mm 3 m/s 748 mmHg 98%
    20:00 +4°C° 0.4 mm 3 m/s 747 mmHg 98%
    21:00 +3°C° 0.7 mm 4 m/s 747 mmHg 97%
    22:00 +3°C° 0.7 mm 4 m/s 746 mmHg 97%
    23:00 +2°C° 0.7 mm 5 m/s 746 mmHg 96%
    Voir plus